Time,TemperatureF,DewpointF,PressureIn,WindDirection,WindDirectionDegrees,WindSpeedMPH,WindSpeedGustMPH,Humidity,HourlyPrecipIn,Conditions,Clouds,dailyrainin,SoftwareType,DateUTC
2013-09-01 00:00:00,77.7,72.8,29.82,SSW,210,1.0,5.0,85,0.00,CLR,,0.00,WeatherDisplay:10.37,2013-09-01 04:00:00,
2013-09-01 00:05:00,77.5,72.6,29.82,SSW,209,1.0,3.0,85,0.00,CLR,,0.00,WeatherDisplay:10.37,2013-09-01 04:05:00,
2013-09-01 00:10:00,77.4,72.9,29.82,SSW,209,0.0,1.0,86,0.00,CLR,,0.00,WeatherDisplay:10.37,2013-09-01 04:10:00,
2013-09-01 00:15:00,77.2,72.7,29.82,SSW,209,0.0,1.0,86,0.00,CLR,,0.00,WeatherDisplay:10.37,2013-09-01 04:15:00,
2013-09-01 00:20:00,77.1,72.6,29.81,SSW,209,0.0,2.0,86,0.00,CLR,,0.00,WeatherDisplay:10.37,2013-09-01 04:20:00,
2013-09-01 00:30:00,76.8,72.3,29.82,SSW,209,0.0,3.0,86,0.00,CLR,,0.00,WeatherDisplay:10.37,2013-09-01 04:30:00,
2013-09-01 00:35:00,76.7,72.5,29.82,SSW,209,0.0,2.0,87,0.00,CLR,,0.00,WeatherDisplay:10.37,2013-09-01 04:35:00,
2013-09-01 00:40:00,76.5,72.3,29.81,SSW,209,0.0,2.0,87,0.00,CLR,,0.00,WeatherDisplay:10.37,2013-09-01 04:40:00,
2013-09-01 00:45:00,76.5,72.3,29.81,SSW,210,0.0,1.0,87,0.00,CLR,,0.00,WeatherDisplay:10.37,2013-09-01 04:45:00,
2013-09-01 00:50:00,76.3,72.5,29.82,SSW,210,0.0,1.0,88,0.00,CLR,,0.00,WeatherDisplay:10.37,2013-09-01 04:50:00,
2013-09-01 01:00:00,75.8,72.0,29.82,SSW,209,0.0,0.0,88,0.00,CLR,,0.00,WeatherDisplay:10.37,2013-09-01 05:00:00,
2013-09-01 01:05:00,75.8,72.3,29.82,SSW,210,0.0,0.0,89,0.00,CLR,,0.00,WeatherDisplay:10.37,2013-09-01 05:05:00,
2013-09-01 01:10:00,75.9,72.4,29.82,SSW,210,0.0,2.0,89,0.00,CLR,,0.00,WeatherDisplay:10.37,2013-09-01 05:10:00,
2013-09-01 01:20:00,75.6,72.1,29.82,SSW,209,0.0,5.0,89,0.00,CLR,,0.00,WeatherDisplay:10.37,2013-09-01 05:20:00,
2013-09-01 01:30:00,75.3,71.8,29.81,SSW,209,1.0,3.0,89,0.00,CLR,,0.00,WeatherDisplay:10.37,2013-09-01 05:30:00,
2013-09-01 01:40:00,74.9,71.7,29.81,SSW,208,0.0,5.0,90,0.00,CLR,,0.00,WeatherDisplay:10.37,2013-09-01 05:40:00,
2013-09-01 01:50:00,74.6,71.1,29.81,SSW,204,2.0,5.0,89,0.00,CLR,,0.00,WeatherDisplay:10.37,2013-09-01 05:50:00,
2013-09-01 02:00:00,74.4,71.3,29.81,SSW,209,2.0,7.0,90,0.00,CLR,,0.00,WeatherDisplay:10.37,2013-09-01 06:00:00,
2013-09-01 02:05:00,74.3,70.8,29.81,SSW,209,7.0,9.0,89,0.00,CLR,,0.00,WeatherDisplay:10.37,2013-09-01 06:05:00,
2013-09-01 02:10:00,74.1,70.3,29.80,SSW,207,5.0,9.0,88,0.00,CLR,,0.00,WeatherDisplay:10.37,2013-09-01 06:10:00,
2013-09-01 02:20:00,74.1,70.3,29.80,SSW,211,1.0,5.0,88,0.00,CLR,,0.00,WeatherDisplay:10.37,2013-09-01 06:20:00,
2013-09-01 02:30:00,73.8,69.7,29.80,SW,217,3.0,7.0,87,0.00,CLR,,0.00,WeatherDisplay:10.37,2013-09-01 06:30:00,
2013-09-01 02:40:00,73.6,69.5,29.80,SSW,209,2.0,8.0,87,0.00,CLR,,0.00,WeatherDisplay:10.37,2013-09-01 06:40:00,
2013-09-01 02:50:00,73.5,69.4,29.80,SSW,209,3.0,9.0,87,0.00,CLR,,0.00,WeatherDisplay:10.37,2013-09-01 06:50:00,
2013-09-01 02:55:00,73.3,69.2,29.80,SW,216,1.0,7.0,87,0.00,CLR,,0.00,WeatherDisplay:10.37,2013-09-01 06:55:00,
2013-09-01 03:05:00,73.1,69.0,29.79,SW,223,5.0,8.0,87,0.00,CLR,,0.00,WeatherDisplay:10.37,2013-09-01 07:05:00,
2013-09-01 03:10:00,73.0,68.9,29.79,SW,224,5.0,9.0,87,0.00,CLR,,0.00,WeatherDisplay:10.37,2013-09-01 07:10:00,
2013-09-01 03:20:00,72.8,69.0,29.80,SW,229,3.0,10.0,88,0.00,CLR,,0.00,WeatherDisplay:10.37,2013-09-01 07:20:00,
2013-09-01 03:30:00,72.7,68.9,29.80,WSW,247,0.0,6.0,88,0.00,CLR,,0.00,WeatherDisplay:10.37,2013-09-01 07:30:00,
2013-09-01 03:40:00,72.5,68.7,29.80,SW,222,0.0,3.0,88,0.00,CLR,,0.00,WeatherDisplay:10.37,2013-09-01 07:40:00,
2013-09-01 03:50:00,72.4,68.6,29.80,WNW,286,5.0,8.0,88,0.00,CLR,,0.00,WeatherDisplay:10.37,2013-09-01 07:50:00,
2013-09-01 04:00:00,72.2,68.4,29.80,WNW,297,0.0,1.0,88,0.00,CLR,,0.00,WeatherDisplay:10.37,2013-09-01 08:00:00,
2013-09-01 04:05:00,72.1,68.3,29.80,WNW,297,0.0,2.0,88,0.00,CLR,,0.00,WeatherDisplay:10.37,2013-09-01 08:05:00,
2013-09-01 04:10:00,72.1,68.4,29.79,West,280,1.0,6.0,88,0.00,CLR,,0.00,WeatherDisplay:10.37,2013-09-01 08:10:00,
2013-09-01 04:20:00,72.0,68.2,29.79,West,274,0.0,5.0,88,0.00,CLR,,0.00,WeatherDisplay:10.37,2013-09-01 08:20:00,
2013-09-01 04:30:00,72.0,68.2,29.79,West,274,1.0,5.0,88,0.00,CLR,,0.00,WeatherDisplay:10.37,2013-09-01 08:30:00,
2013-09-01 04:40:00,71.8,68.0,29.79,West,281,1.0,5.0,88,0.00,CLR,,0.00,WeatherDisplay:10.37,2013-09-01 08:40:00,
2013-09-01 04:50:00,71.4,68.0,29.80,WSW,252,0.0,2.0,89,0.00,CLR,,0.00,WeatherDisplay:10.37,2013-09-01 08:50:00,
2013-09-01 04:55:00,71.1,67.7,29.80,WSW,250,0.0,3.0,89,0.00,CLR,,0.00,WeatherDisplay:10.37,2013-09-01 08:55:00,
2013-09-01 05:05:00,70.9,67.8,29.80,WSW,250,0.0,2.0,90,0.00,CLR,,0.00,WeatherDisplay:10.37,2013-09-01 09:05:00,
2013-09-01 05:10:00,70.8,67.7,29.80,WSW,250,0.0,2.0,90,0.00,CLR,,0.00,WeatherDisplay:10.37,2013-09-01 09:10:00,
2013-09-01 05:20:00,70.6,67.6,29.81,WSW,250,0.0,2.0,90,0.00,CLR,,0.00,WeatherDisplay:10.37,2013-09-01 09:20:00,
2013-09-01 05:30:00,70.6,67.5,29.81,WSW,250,0.0,1.0,90,0.00,CLR,,0.00,WeatherDisplay:10.37,2013-09-01 09:30:00,
2013-09-01 05:35:00,70.7,67.6,29.81,WSW,250,1.0,3.0,90,0.00,CLR,,0.00,WeatherDisplay:10.37,2013-09-01 09:35:00,
2013-09-01 05:45:00,71.0,67.6,29.81,WSW,249,1.0,5.0,89,0.00,CLR,,0.00,WeatherDisplay:10.37,2013-09-01 09:45:00,
2013-09-01 05:50:00,70.9,67.5,29.81,WSW,247,0.0,3.0,89,0.00,CLR,,0.00,WeatherDisplay:10.37,2013-09-01 09:50:00,
2013-09-01 05:55:00,70.8,67.4,29.81,WSW,247,1.0,3.0,89,0.00,CLR,,0.00,WeatherDisplay:10.37,2013-09-01 09:55:00,
2013-09-01 06:05:00,70.8,67.7,29.81,WSW,253,0.0,5.0,90,0.00,CLR,,0.00,WeatherDisplay:10.37,2013-09-01 10:05:00,
2013-09-01 06:10:00,70.7,67.6,29.81,WSW,254,1.0,5.0,90,0.00,CLR,,0.00,WeatherDisplay:10.37,2013-09-01 10:10:00,
2013-09-01 06:20:00,70.7,67.6,29.81,WSW,258,0.0,6.0,90,0.00,CLR,,0.00,WeatherDisplay:10.37,2013-09-01 10:20:00,
2013-09-01 06:30:00,70.6,67.5,29.81,WSW,246,0.0,5.0,90,0.00,CLR,,0.00,WeatherDisplay:10.37,2013-09-01 10:30:00,
2013-09-01 06:35:00,70.5,67.4,29.81,WSW,250,0.0,5.0,90,0.00,CLR,,0.00,WeatherDisplay:10.37,2013-09-01 10:35:00,
2013-09-01 06:40:00,70.5,67.4,29.82,WSW,250,0.0,3.0,90,0.00,CLR,,0.00,WeatherDisplay:10.37,2013-09-01 10:40:00,
2013-09-01 06:50:00,70.4,67.3,29.82,WSW,250,0.0,2.0,90,0.00,CLR,,0.00,WeatherDisplay:10.37,2013-09-01 10:50:00,
2013-09-01 07:00:00,70.3,67.2,29.82,WSW,250,0.0,1.0,90,0.00,CLR,,0.00,WeatherDisplay:10.37,2013-09-01 11:00:00,
2013-09-01 07:05:00,70.3,67.2,29.82,West,269,0.0,3.0,90,0.00,CLR,,0.00,WeatherDisplay:10.37,2013-09-01 11:05:00,
2013-09-01 07:10:00,70.4,67.6,29.82,WNW,282,0.0,2.0,91,0.00,CLR,,0.00,WeatherDisplay:10.37,2013-09-01 11:10:00,
2013-09-01 07:20:00,70.8,67.7,29.82,WNW,283,0.0,0.0,90,0.00,CLR,,0.00,WeatherDisplay:10.37,2013-09-01 11:20:00,
2013-09-01 07:30:00,71.4,68.3,29.82,WNW,283,0.0,1.0,90,0.00,CLR,,0.00,WeatherDisplay:10.37,2013-09-01 11:30:00,
2013-09-01 07:35:00,71.5,68.1,29.82,WNW,283,0.0,0.0,89,0.00,CLR,,0.00,WeatherDisplay:10.37,2013-09-01 11:35:00,
2013-09-01 07:40:00,71.7,68.3,29.82,WNW,282,0.0,0.0,89,0.00,CLR,,0.00,WeatherDisplay:10.37,2013-09-01 11:40:00,
2013-09-01 07:50:00,72.1,68.3,29.82,WNW,283,1.0,3.0,88,0.00,CLR,,0.00,WeatherDisplay:10.37,2013-09-01 11:50:00,
2013-09-01 08:00:00,72.0,68.6,29.83,WNW,292,0.0,1.0,89,0.00,CLR,,0.00,WeatherDisplay:10.37,2013-09-01 12:00:00,
2013-09-01 08:05:00,72.8,69.0,29.83,WNW,292,0.0,2.0,88,0.00,CLR,,0.00,WeatherDisplay:10.37,2013-09-01 12:05:00,
2013-09-01 08:10:00,72.6,68.5,29.83,WNW,292,0.0,2.0,87,0.00,CLR,,0.00,WeatherDisplay:10.37,2013-09-01 12:10:00,
2013-09-01 08:15:00,72.4,68.3,29.83,West,266,2.0,5.0,87,0.00,CLR,,0.00,WeatherDisplay:10.37,2013-09-01 12:15:00,
2013-09-01 08:20:00,72.6,68.8,29.83,WSW,246,2.0,3.0,88,0.00,CLR,,0.00,WeatherDisplay:10.37,2013-09-01 12:20:00,
2013-09-01 08:30:00,73.1,69.0,29.83,SW,227,0.0,1.0,87,0.00,CLR,,0.00,WeatherDisplay:10.37,2013-09-01 12:30:00,
2013-09-01 08:40:00,74.3,69.5,29.83,WSW,238,1.0,5.0,85,0.00,CLR,,0.00,WeatherDisplay:10.37,2013-09-01 12:40:00,
2013-09-01 08:50:00,74.3,69.5,29.83,SW,222,3.0,5.0,85,0.00,CLR,,0.00,WeatherDisplay:10.37,2013-09-01 12:50:00,
2013-09-01 09:00:00,74.6,69.5,29.83,South,176,1.0,6.0,84,0.00,CLR,,0.00,WeatherDisplay:10.37,2013-09-01 13:00:00,
2013-09-01 09:05:00,75.1,69.6,29.83,South,171,0.0,5.0,83,0.00,CLR,,0.00,WeatherDisplay:10.37,2013-09-01 13:05:00,
2013-09-01 09:10:00,75.2,70.0,29.83,South,177,2.0,5.0,84,0.00,CLR,,0.00,WeatherDisplay:10.37,2013-09-01 13:10:00,
2013-09-01 09:20:00,76.0,70.1,29.83,South,179,0.0,3.0,82,0.00,CLR,,0.00,WeatherDisplay:10.37,2013-09-01 13:20:00,
2013-09-01 09:30:00,76.9,70.2,29.83,South,181,2.0,5.0,80,0.00,CLR,,0.00,WeatherDisplay:10.37,2013-09-01 13:30:00,
2013-09-01 09:35:00,77.8,71.1,29.84,South,188,0.0,1.0,80,0.00,CLR,,0.00,WeatherDisplay:10.37,2013-09-01 13:35:00,
2013-09-01 09:40:00,78.5,70.7,29.83,SSW,196,2.0,3.0,77,0.00,CLR,,0.00,WeatherDisplay:10.37,2013-09-01 13:40:00,
2013-09-01 09:50:00,78.1,70.7,29.84,South,171,2.0,7.0,78,0.00,CLR,,0.00,WeatherDisplay:10.37,2013-09-01 13:50:00,
2013-09-01 10:00:00,78.5,70.7,29.84,South,181,2.0,5.0,77,0.00,CLR,,0.00,WeatherDisplay:10.37,2013-09-01 14:00:00,
2013-09-01 10:05:00,78.6,70.8,29.84,South,172,3.0,8.0,77,0.00,CLR,,0.00,WeatherDisplay:10.37,2013-09-01 14:05:00,
2013-09-01 10:10:00,78.3,70.5,29.84,SSE,165,2.0,5.0,77,0.00,CLR,,0.00,WeatherDisplay:10.37,2013-09-01 14:10:00,
2013-09-01 10:20:00,80.0,71.0,29.84,North,353,2.0,6.0,74,0.00,CLR,,0.00,WeatherDisplay:10.37,2013-09-01 14:20:00,
2013-09-01 10:25:00,80.6,71.1,29.84,North,353,0.0,5.0,73,0.00,CLR,,0.00,WeatherDisplay:10.37,2013-09-01 14:25:00,
2013-09-01 10:35:00,81.5,71.2,29.84,West,278,3.0,5.0,71,0.00,CLR,,0.00,WeatherDisplay:10.37,2013-09-01 14:35:00,
2013-09-01 10:40:00,81.4,71.1,29.83,NW,310,0.0,5.0,71,0.00,CLR,,0.00,WeatherDisplay:10.37,2013-09-01 14:40:00,
2013-09-01 10:50:00,82.1,72.2,29.83,NNW,341,1.0,6.0,72,0.00,CLR,,0.00,WeatherDisplay:10.37,2013-09-01 14:50:00,
2013-09-01 11:00:00,82.9,71.3,29.83,North,353,2.0,5.0,68,0.00,CLR,,0.00,WeatherDisplay:10.37,2013-09-01 15:00:00,
2013-09-01 11:05:00,83.0,70.9,29.83,SSW,196,6.0,8.0,67,0.00,CLR,,0.00,WeatherDisplay:10.37,2013-09-01 15:05:00,
2013-09-01 11:10:00,82.9,71.7,29.83,NNW,338,0.0,5.0,69,0.00,CLR,,0.00,WeatherDisplay:10.37,2013-09-01 15:10:00,
2013-09-01 11:20:00,84.8,72.2,29.83,SSW,197,0.0,5.0,66,0.00,CLR,,0.00,WeatherDisplay:10.37,2013-09-01 15:20:00,
2013-09-01 11:30:00,84.6,71.1,29.83,SE,136,1.0,7.0,64,0.00,CLR,,0.00,WeatherDisplay:10.37,2013-09-01 15:30:00,
2013-09-01 11:40:00,84.1,71.5,29.82,SSE,151,0.0,7.0,66,0.00,CLR,,0.00,WeatherDisplay:10.37,2013-09-01 15:40:00,
2013-09-01 11:50:00,84.4,70.9,29.82,SSE,153,6.0,9.0,64,0.00,CLR,,0.00,WeatherDisplay:10.37,2013-09-01 15:50:00,
2013-09-01 12:00:00,84.8,70.3,29.82,South,180,0.0,5.0,62,0.00,CLR,,0.00,WeatherDisplay:10.37,2013-09-01 16:00:00,
2013-09-01 12:05:00,84.9,70.9,29.82,South,190,3.0,5.0,63,0.00,CLR,,0.00,WeatherDisplay:10.37,2013-09-01 16:05:00,
2013-09-01 12:10:00,85.5,71.4,29.81,South,177,5.0,8.0,63,0.00,CLR,,0.00,WeatherDisplay:10.37,2013-09-01 16:10:00,
2013-09-01 12:20:00,85.7,71.2,29.81,SSE,150,6.0,10.0,62,0.00,CLR,,0.00,WeatherDisplay:10.37,2013-09-01 16:20:00,
2013-09-01 12:30:00,86.3,70.3,29.81,SE,143,3.0,10.0,59,0.00,CLR,,0.00,WeatherDisplay:10.37,2013-09-01 16:30:00,
2013-09-01 12:40:00,87.0,70.9,29.80,ESE,117,6.0,10.0,59,0.00,CLR,,0.00,WeatherDisplay:10.37,2013-09-01 16:40:00,
2013-09-01 12:50:00,87.5,70.9,29.80,ENE,60,0.0,5.0,58,0.00,CLR,,0.00,WeatherDisplay:10.37,2013-09-01 16:50:00,
2013-09-01 13:00:00,88.0,70.4,29.80,SSE,152,5.0,7.0,56,0.00,CLR,,0.00,WeatherDisplay:10.37,2013-09-01 17:00:00,
2013-09-01 13:05:00,87.1,70.5,29.80,South,179,0.0,7.0,58,0.00,CLR,,0.00,WeatherDisplay:10.37,2013-09-01 17:05:00,
2013-09-01 13:10:00,87.0,70.5,29.80,SSE,150,1.0,7.0,58,0.00,CLR,,0.00,WeatherDisplay:10.37,2013-09-01 17:10:00,
2013-09-01 13:20:00,87.3,72.2,29.79,East,86,8.0,13.0,61,0.00,CLR,,0.00,WeatherDisplay:10.37,2013-09-01 17:20:00,
2013-09-01 13:25:00,86.6,72.5,29.80,East,82,7.0,13.0,63,0.00,CLR,,0.00,WeatherDisplay:10.37,2013-09-01 17:25:00,
2013-09-01 13:30:00,86.2,72.6,29.80,East,94,6.0,13.0,64,0.00,CLR,,0.00,WeatherDisplay:10.37,2013-09-01 17:30:00,
2013-09-01 13:40:00,85.2,72.5,29.79,East,94,5.0,11.0,66,0.00,CLR,,0.00,WeatherDisplay:10.37,2013-09-01 17:40:00,
2013-09-01 13:50:00,85.4,73.2,29.80,ESE,103,5.0,9.0,67,0.00,CLR,,0.00,WeatherDisplay:10.37,2013-09-01 17:50:00,
2013-09-01 14:00:00,86.8,73.1,29.79,East,100,7.0,13.0,64,0.00,CLR,,0.00,WeatherDisplay:10.37,2013-09-01 18:00:00,
2013-09-01 14:05:00,87.3,73.6,29.79,ESE,122,5.0,13.0,64,0.00,CLR,,0.00,WeatherDisplay:10.37,2013-09-01 18:05:00,
2013-09-01 14:10:00,87.7,73.1,29.79,SE,130,7.0,12.0,62,0.00,CLR,,0.00,WeatherDisplay:10.37,2013-09-01 18:10:00,
2013-09-01 14:20:00,86.1,72.5,29.79,SE,134,7.0,12.0,64,0.00,CLR,,0.00,WeatherDisplay:10.37,2013-09-01 18:20:00,
2013-09-01 14:30:00,86.3,72.7,29.78,SSE,155,6.0,9.0,64,0.00,CLR,,0.00,WeatherDisplay:10.37,2013-09-01 18:30:00,
2013-09-01 14:40:00,87.1,73.0,29.78,SE,128,7.0,9.0,63,0.00,CLR,,0.00,WeatherDisplay:10.37,2013-09-01 18:40:00,
2013-09-01 14:50:00,86.6,73.4,29.77,ESE,121,6.0,12.0,65,0.00,CLR,,0.00,WeatherDisplay:10.37,2013-09-01 18:50:00,
2013-09-01 15:00:00,87.1,73.4,29.77,ESE,115,6.0,9.0,64,0.00,CLR,,0.00,WeatherDisplay:10.37,2013-09-01 19:00:00,
2013-09-01 15:05:00,87.8,74.1,29.77,ESE,114,3.0,12.0,64,0.00,CLR,,0.00,WeatherDisplay:10.37,2013-09-01 19:05:00,
2013-09-01 15:10:00,86.9,73.2,29.77,SE,126,6.0,14.0,64,0.00,CLR,,0.00,WeatherDisplay:10.37,2013-09-01 19:10:00,
2013-09-01 15:15:00,87.2,74.0,29.77,SSE,149,5.0,10.0,65,0.00,CLR,,0.00,WeatherDisplay:10.37,2013-09-01 19:15:00,
2013-09-01 15:20:00,87.9,73.7,29.76,SSE,152,6.0,12.0,63,0.00,CLR,,0.00,WeatherDisplay:10.37,2013-09-01 19:20:00,
2013-09-01 15:30:00,88.0,73.3,29.76,SE,137,8.0,14.0,62,0.00,CLR,,0.00,WeatherDisplay:10.37,2013-09-01 19:30:00,
2013-09-01 15:40:00,87.3,73.1,29.76,ESE,121,6.0,13.0,63,0.00,CLR,,0.00,WeatherDisplay:10.37,2013-09-01 19:40:00,
2013-09-01 15:50:00,87.1,72.5,29.76,ESE,114,7.0,15.0,62,0.00,CLR,,0.00,WeatherDisplay:10.37,2013-09-01 19:50:00,
2013-09-01 15:55:00,87.7,73.5,29.76,East,100,5.0,9.0,63,0.00,CLR,,0.00,WeatherDisplay:10.37,2013-09-01 19:55:00,
2013-09-01 16:05:00,87.5,72.9,29.76,ESE,107,7.0,13.0,62,0.00,CLR,,0.00,WeatherDisplay:10.37,2013-09-01 20:05:00,
2013-09-01 16:10:00,87.2,73.1,29.76,ESE,116,2.0,12.0,63,0.00,CLR,,0.00,WeatherDisplay:10.37,2013-09-01 20:10:00,
2013-09-01 16:20:00,87.7,74.0,29.76,ESE,117,6.0,9.0,64,0.00,CLR,,0.00,WeatherDisplay:10.37,2013-09-01 20:20:00,
2013-09-01 16:30:00,87.0,74.3,29.76,ESE,113,2.0,10.0,66,0.00,CLR,,0.00,WeatherDisplay:10.37,2013-09-01 20:30:00,
2013-09-01 16:40:00,87.1,74.3,29.76,ESE,119,7.0,13.0,66,0.00,CLR,,0.00,WeatherDisplay:10.37,2013-09-01 20:40:00,
2013-09-01 16:50:00,86.3,74.1,29.75,ESE,116,7.0,12.0,67,0.00,CLR,,0.00,WeatherDisplay:10.37,2013-09-01 20:50:00,
2013-09-01 17:00:00,86.1,73.8,29.75,SE,136,6.0,12.0,67,0.00,CLR,,0.00,WeatherDisplay:10.37,2013-09-01 21:00:00,
2013-09-01 17:05:00,86.1,74.3,29.75,SSE,152,5.0,7.0,68,0.00,CLR,,0.00,WeatherDisplay:10.37,2013-09-01 21:05:00,
2013-09-01 17:10:00,86.1,74.3,29.75,SE,132,3.0,8.0,68,0.00,CLR,,0.00,WeatherDisplay:10.37,2013-09-01 21:10:00,
2013-09-01 17:20:00,86.0,74.2,29.75,SSE,151,5.0,9.0,68,0.00,CLR,,0.00,WeatherDisplay:10.37,2013-09-01 21:20:00,
2013-09-01 17:30:00,86.0,74.2,29.75,SE,144,7.0,9.0,68,0.00,CLR,,0.00,WeatherDisplay:10.37,2013-09-01 21:30:00,
2013-09-01 17:35:00,85.9,74.5,29.75,SSE,162,3.0,9.0,69,0.00,CLR,,0.00,WeatherDisplay:10.37,2013-09-01 21:35:00,
2013-09-01 17:40:00,85.9,74.6,29.75,SSE,163,2.0,9.0,69,0.00,CLR,,0.00,WeatherDisplay:10.37,2013-09-01 21:40:00,
2013-09-01 17:50:00,85.5,74.1,29.75,SSE,156,2.0,9.0,69,0.00,CLR,,0.00,WeatherDisplay:10.37,2013-09-01 21:50:00,
2013-09-01 18:00:00,85.0,74.1,29.75,SSE,160,6.0,8.0,70,0.00,CLR,,0.00,WeatherDisplay:10.37,2013-09-01 22:00:00,
2013-09-01 18:05:00,84.9,74.4,29.75,SSE,166,3.0,10.0,71,0.00,CLR,,0.00,WeatherDisplay:10.37,2013-09-01 22:05:00,
2013-09-01 18:10:00,84.8,74.3,29.75,SSE,166,6.0,7.0,71,0.00,CLR,,0.00,WeatherDisplay:10.37,2013-09-01 22:10:00,
2013-09-01 18:20:00,84.5,74.1,29.75,SSE,149,3.0,9.0,71,0.00,CLR,,0.00,WeatherDisplay:10.37,2013-09-01 22:20:00,
2013-09-01 18:30:00,84.3,73.8,29.75,SSE,151,5.0,9.0,71,0.00,CLR,,0.00,WeatherDisplay:10.37,2013-09-01 22:30:00,
2013-09-01 18:40:00,83.8,73.8,29.75,SSE,163,3.0,9.0,72,0.00,CLR,,0.00,WeatherDisplay:10.37,2013-09-01 22:40:00,
2013-09-01 18:50:00,83.4,73.9,29.76,SSE,164,3.0,7.0,73,0.00,CLR,,0.00,WeatherDisplay:10.37,2013-09-01 22:50:00,
2013-09-01 19:00:00,83.2,74.1,29.76,SSE,148,2.0,5.0,74,0.00,CLR,,0.00,WeatherDisplay:10.37,2013-09-01 23:00:00,
2013-09-01 19:05:00,83.2,74.0,29.76,SSE,152,3.0,6.0,74,0.00,CLR,,0.00,WeatherDisplay:10.37,2013-09-01 23:05:00,
2013-09-01 19:10:00,83.0,73.9,29.76,SSE,162,5.0,7.0,74,0.00,CLR,,0.00,WeatherDisplay:10.37,2013-09-01 23:10:00,
2013-09-01 19:20:00,82.6,73.9,29.76,SSE,162,3.0,8.0,75,0.00,CLR,,0.00,WeatherDisplay:10.37,2013-09-01 23:20:00,
2013-09-01 19:30:00,82.3,73.6,29.76,SSE,153,3.0,7.0,75,0.00,CLR,,0.00,WeatherDisplay:10.37,2013-09-01 23:30:00,
2013-09-01 19:40:00,82.1,73.8,29.76,SSE,152,3.0,8.0,76,0.00,CLR,,0.00,WeatherDisplay:10.37,2013-09-01 23:40:00,
2013-09-01 19:50:00,82.0,73.6,29.76,SSE,157,2.0,8.0,76,0.00,CLR,,0.00,WeatherDisplay:10.37,2013-09-01 23:50:00,
2013-09-01 19:59:00,81.8,73.5,29.77,SSE,161,3.0,8.0,76,0.00,CLR,,0.00,WeatherDisplay:10.37,2013-09-01 23:59:00,
2013-09-01 20:05:00,81.7,73.4,29.77,SSE,167,2.0,5.0,76,0.00,CLR,,0.00,WeatherDisplay:10.37,2013-09-02 00:05:00,
2013-09-01 20:10:00,81.7,73.4,29.77,SSE,168,5.0,5.0,76,0.00,CLR,,0.00,WeatherDisplay:10.37,2013-09-02 00:10:00,
2013-09-01 20:20:00,81.7,73.4,29.77,South,186,0.0,2.0,76,0.00,CLR,,0.00,WeatherDisplay:10.37,2013-09-02 00:20:00,
2013-09-01 20:30:00,81.4,73.5,29.77,SSW,199,2.0,5.0,77,0.00,CLR,,0.00,WeatherDisplay:10.37,2013-09-02 00:30:00,
2013-09-01 20:40:00,80.9,73.4,29.77,South,185,0.0,7.0,78,0.00,CLR,,0.00,WeatherDisplay:10.37,2013-09-02 00:40:00,
2013-09-01 20:50:00,80.8,73.6,29.78,SSW,195,1.0,5.0,79,0.00,CLR,,0.00,WeatherDisplay:10.37,2013-09-02 00:50:00,
2013-09-01 20:59:00,80.5,73.7,29.78,SSW,196,0.0,1.0,80,0.00,CLR,,0.00,WeatherDisplay:10.37,2013-09-02 00:59:00,
2013-09-01 21:05:00,80.5,73.7,29.78,SSW,195,0.0,1.0,80,0.00,CLR,,0.00,WeatherDisplay:10.37,2013-09-02 01:05:00,
2013-09-01 21:10:00,80.5,73.7,29.78,SSW,195,0.0,3.0,80,0.00,CLR,,0.00,WeatherDisplay:10.37,2013-09-02 01:10:00,
2013-09-01 21:20:00,80.1,73.8,29.78,SSW,195,0.0,5.0,81,0.00,CLR,,0.00,WeatherDisplay:10.37,2013-09-02 01:20:00,
2013-09-01 21:30:00,79.8,73.9,29.78,South,170,3.0,5.0,82,0.00,CLR,,0.00,WeatherDisplay:10.37,2013-09-02 01:30:00,
2013-09-01 21:40:00,79.6,74.0,29.78,SSE,156,1.0,5.0,83,0.00,CLR,,0.00,WeatherDisplay:10.37,2013-09-02 01:40:00,
2013-09-01 21:50:00,79.5,73.9,29.78,SSE,164,1.0,2.0,83,0.00,CLR,,0.00,WeatherDisplay:10.37,2013-09-02 01:50:00,
2013-09-01 21:59:00,79.4,73.8,29.79,SSW,199,0.0,3.0,83,0.00,CLR,,0.00,WeatherDisplay:10.37,2013-09-02 01:59:00,
2013-09-01 22:05:00,79.6,74.0,29.79,SSW,195,1.0,5.0,83,0.00,CLR,,0.00,WeatherDisplay:10.37,2013-09-02 02:05:00,
2013-09-01 22:10:00,79.6,73.9,29.79,SSW,195,0.0,5.0,83,0.00,CLR,,0.00,WeatherDisplay:10.37,2013-09-02 02:10:00,
2013-09-01 22:20:00,79.2,73.9,29.79,SSW,194,0.0,3.0,84,0.00,CLR,,0.00,WeatherDisplay:10.37,2013-09-02 02:20:00,
2013-09-01 22:30:00,79.0,73.7,29.79,SSW,193,0.0,3.0,84,0.00,CLR,,0.00,WeatherDisplay:10.37,2013-09-02 02:30:00,
2013-09-01 22:40:00,78.9,73.7,29.79,SSW,193,0.0,3.0,84,0.00,CLR,,0.00,WeatherDisplay:10.37,2013-09-02 02:40:00,
2013-09-01 22:50:00,78.8,73.9,29.79,SSW,193,0.0,2.0,85,0.00,CLR,,0.00,WeatherDisplay:10.37,2013-09-02 02:50:00,
2013-09-01 22:59:00,78.7,73.8,29.78,SSW,193,0.0,1.0,85,0.00,CLR,,0.00,WeatherDisplay:10.37,2013-09-02 02:59:00,
2013-09-01 23:04:00,78.7,73.8,29.78,SSW,192,0.0,1.0,85,0.00,CLR,,0.00,WeatherDisplay:10.37,2013-09-02 03:04:00,
2013-09-01 23:10:00,78.7,73.8,29.78,WSW,246,1.0,5.0,85,0.00,CLR,,0.00,WeatherDisplay:10.37,2013-09-02 03:10:00,
2013-09-01 23:20:00,78.2,73.6,29.78,WNW,297,0.0,1.0,86,0.00,CLR,,0.00,WeatherDisplay:10.37,2013-09-02 03:20:00,
2013-09-01 23:30:00,78.1,73.5,29.78,WNW,297,0.0,0.0,86,0.00,CLR,,0.00,WeatherDisplay:10.37,2013-09-02 03:30:00,
2013-09-01 23:40:00,78.1,73.5,29.78,WNW,297,0.0,1.0,86,0.00,CLR,,0.00,WeatherDisplay:10.37,2013-09-02 03:40:00,
2013-09-01 23:50:00,77.9,73.7,29.78,WNW,297,0.0,3.0,87,0.00,CLR,,0.00,WeatherDisplay:10.37,2013-09-02 03:50:00,
2013-09-01 23:59:00,77.8,73.6,29.77,WNW,297,0.0,0.0,87,0.00,CLR,,0.00,WeatherDisplay:10.37,2013-09-02 03:59:00,